Regional Weather Roundup
Issued by NWS

Home | Current Version | Previous Version | Text Only | Print | Product List | Glossary Off
Versions: 1 2 3 4 5 6 7 8 9 10 11 12 13 14 15 16 17 18 19 20 21 22 23 24 25 26 27 28 29 30 31 32 33 34 35 36 37 38 39 40 41 42 43 44 45 46 47 48 49 50

000
ASUS43 KDMX 040108
RWRIA

WEATHER ROUNDUP FOR IOWA
NATIONAL WEATHER SERVICE DES MOINES IA
800 PM CDT TUE MAY 03 2016

NOTE: "FAIR" INDICATES FEW OR NO CLOUDS BELOW 12,000 FEET WITH NO
SIGNIFICANT WEATHER AND/OR OBSTRUCTIONS TO VISIBILITY.

* - THESE STATIONS ARE NOT NWS STATIONS...THUS NOT UNDER NWS
QUALITY CONTROL.  THEY ALSO DO NOT REPORT WEATHER SUCH
AS PRECIPITATION OR FOG.

IAZ001>003-012>014-020>022-031>034-043>046-040200-
   NORTHWEST IOWA

CITY           SKY/WX    TMP DP  RH WIND       PRES   REMARKS
CARROLL *      CLEAR     64  45  48 W15       29.83F
CHEROKEE *     CLEAR     64  46  52 W14       29.80F
DENISON *      CLEAR     64  45  48 W10G17    29.84F
LE MARS *      CLEAR     66  48  52 W9        29.83F
ORANGE CITY *  PTCLDY    66  48  52 W15       29.80F
SHELDON *      MOCLDY    66  46  48 W14G21    29.77F
SIOUX CITY     CLEAR     66  47  50 MISG      29.85F
SPENCER        MOCLDY    65  45  48 W16       29.77F
STORM LAKE *   PTCLDY    63  46  55 W15       29.81F
$$

IAZ055>058-069>071-079>083-090>094-040200-
   SOUTHWEST IOWA

CITY           SKY/WX    TMP DP  RH WIND       PRES   REMARKS
ATLANTIC *     PTCLDY    66  43  42 W8        29.87F
AUDUBON *      CLEAR     64  45  48 W6        29.88S
CLARINDA *       N/A    N/A N/A N/A MISG        N/A
COUNCIL BLFS * CLEAR     66  41  39 NW13G18   29.89F
CRESTON *      MOCLDY    61  46  59 W7        29.89F
HARLAN  *      CLEAR     64  45  48 NW10      29.91S
LAMONI         CLEAR     61  45  55 W8        29.89F
RED OAK *      PTCLDY    66  45  45 W7        29.89F
SHENANDOAH *   CLEAR     66  46  48 W8        29.91S
$$

IAZ047>049-059>061-072>074-084-040200-
   CENTRAL IOWA

CITY           SKY/WX    TMP DP  RH WIND       PRES   REMARKS
AMES           CLEAR     64  45  49 W12       29.80F
ANKENY *       CLEAR     64  45  48 W9G18     29.82F
BOONE *        CLEAR     64  45  48 W12G18    29.80F
CHARITON *     CLEAR     63  43  48 W7        29.86F
DES MOINES     MOCLDY    65  42  43 W8        29.83F
GRINNELL*      PTCLDY    63  45  51 W9        29.81F
KNOXVILLE *    MOCLDY    63  45  51 W10       29.82F
MARSHALLTOWN   PTCLDY    63  44  50 W15       29.78F
NEWTON *       CLEAR     63  45  51 W8        29.81F
PERRY *          N/A     63  46  55 W13       29.84F
$$

IAZ004>006-015-016-023>025-035-036-040200-
   NORTH CENTRAL IOWA

CITY           SKY/WX    TMP DP  RH WIND       PRES   REMARKS
ALGONA *       CLOUDY    66  45  45 W12       29.74F
CLARION *      PTCLDY    63  46  55 W16       29.76F
ESTHERVILLE    MOCLDY    64  47  53 W16       29.75S
FORT DODGE *   CLEAR     63  45  51 W13       29.79F
MASON CITY     CLOUDY    65  46  50 W14       29.73F
FOREST CITY *  CLOUDY    64  41  42 W7        29.72F
WEBSTER CITY * CLEAR     64  46  52 W15G22    29.77F
IOWA FALLS *     N/A     64  46  52 W14       29.78F
$$

IAZ007>011-017>019-026>030-037>042-050>054-066-040200-
   NORTHEAST IOWA

CITY           SKY/WX    TMP DP  RH WIND       PRES   REMARKS
CEDAR RAPIDS   MOCLDY    61  46  57 W10       29.77F
CHARLES CITY * CLOUDY    64  43  45 W14G23    29.71F
CLINTON *      PTCLDY    59  44  57 SW10      29.78F
DECORAH *      CLEAR     64  43  45 W8G14     29.68F
DUBUQUE        PTCLDY    59  42  53 SW12      29.74F
MONTICELLO *   PTCLDY    61  45  55 SW9       29.75F
OELWEIN *      MOCLDY    63  45  51 W13       29.73F
$$

IAZ064-065-067-068-078-040200-
   EAST CENTRAL IOWA

CITY           SKY/WX    TMP DP  RH WIND       PRES   REMARKS
DAVENPORT      CLOUDY    61  42  49 SW10      29.79F
IOWA CITY      CLOUDY    63  42  46 SW8       29.80F
MT. PLEASANT * PTCLDY    61  46  59 SW7       29.84F
MUSCATINE *    MOCLDY    63  41  45 SW10      29.81F
QUAD CITIES    CLOUDY    64  39  39 SW12      29.79F
$$

IAZ062-063-075>077-085>089-095>099-040200-
   SOUTHEAST IOWA

CITY           SKY/WX    TMP DP  RH WIND       PRES   REMARKS
BURLINGTON     CLEAR     60  46  59 SW7       29.84F
FAIRFIELD *    MOCLDY    63  43  48 SW9       29.83F
FORT MADISON * PTCLDY    63  43  48 SW6       29.86F
KEOKUK *       CLEAR     63  43  48 W7        29.86S
OSKALOOSA *    MOCLDY    61  45  55 W10       29.83F
OTTUMWA        PTCLDY    61  44  53 W9        29.83F
WASHINGTON *   MOCLDY    61  45  55 SW10      29.83F
$$

ABBREVIATIONS USED IN REMARKS
   TC - TEMPERATURES IN CELSIUS
  WCI - WIND CHILL INDEX
   HX - HEAT INDEX
  VSB - VISIBILITY
$$





USA.gov is the U.S. government's official web portal to all federal, state and local government web resources and services.